Weather Roundup
Issued by NWS

Home | Current Version | Previous Version | Text Only | Print | Product List | Glossary On
Versions: 1 2 3 4 5 6 7 8 9 10 11 12 13 14 15 16 17 18 19 20 21 22 23 24 25 26 27 28 29 30 31 32 33 34 35 36 37 38 39 40 41 42 43 44 45 46 47 48 49 50
000
NZUS93 KARX 301210
HRRWXR

CURRENT HOURLY OBSERVATIONS ACROSS
MUCH OF THE UPPER MISSISSIPPI VALLEY
NATIONAL WEATHER SERVICE LA CROSSE WI
700 AM CDT SAT APR 30 2016


...SOUTHEAST MINNESOTA...


CITY           SKY/WX    TMP DP  RH WIND       PRES   REMARKS
ROCHESTER      CLOUDY    41  38  89 E15       30.03F
ROCHESTER/MAYO FAIR      43  37  80 NE7       30.04S
WINONA         CLOUDY    41  37  87 SE5       30.08S
AUSTIN         CLOUDY    43  37  81 E17       29.99F
ALBERT LEA     CLOUDY    43  37  81 E16       29.97F
DODGE CENTER   CLOUDY    41  37  87 E15       30.02F
PRESTON        CLOUDY    41  36  83 E15       30.02F
OWATONNA       CLOUDY    43  37  81 NE12      30.02F
FARIBAULT      CLOUDY    41  37  87 NE5       30.05F
$$

...ELSEWHERE IN MINNESOTA...


CITY           SKY/WX    TMP DP  RH WIND       PRES   REMARKS
MINNEAPOLIS    MOCLDY    43  32  65 NE14      30.09R
INTNL FALLS    CLEAR     36  32  85 NE7       30.30S WCI  30
DULUTH         PTCLDY    38  30  73 E16       30.23R WCI  29
RED WING       CLOUDY    43  36  75 E9        30.07F
REDWOOD FALLS  CLOUDY    41  33  73 NE8G17    30.03F
MANKATO        CLOUDY    45  36  70 NE13      30.02F
WORTHINGTON    CLOUDY    42  38  85 NE18      29.93F
FAIRMONT       CLOUDY    45  30  57 NE15      29.95F
$$

...SOUTHWEST WISCONSIN...


CITY           SKY/WX    TMP DP  RH WIND       PRES   REMARKS
LA CROSSE      CLOUDY    44  36  73 E6        30.07F
PRAIRIE DU CHI CLOUDY    45  37  75 E9        30.02F
BOSCOBEL       CLOUDY    46  38  73 NE8       30.05S
LONE ROCK      CLOUDY    45  37  73 E9        30.07R
PLATTEVILLE    CLOUDY    44  40  88 E13       30.02S
FORT MC COY    CLOUDY    39  35  84 CALM      30.10S
CAMP DOUGLAS   CLOUDY    37  37 100 CALM      30.10R
MAUSTON-NEW LI NOT AVBL
VIROQUA        FAIR      42  38  85 E13       30.05S
WIS DELLS      CLOUDY    39  32  75 NE7       30.08S WCI  34
$$

...ELSEWHERE IN WISCONSIN...


CITY           SKY/WX    TMP DP  RH WIND       PRES   REMARKS
MILWAUKEE      CLOUDY    43  39  86 E12       30.10S
MADISON        CLOUDY    42  33  70 E10       30.07F
GREEN BAY      CLOUDY    43  38  82 NE10      30.15S
EAU CLAIRE     MOCLDY    40  35  83 NE7       30.12R
BLACK RVR FLS  FAIR      38  36  94 NE5       30.11S WCI  34
MEDFORD        CLOUDY    36  30  81 NE8       30.14R WCI  29
WAUSAU         PTSUNNY   42  30  62 E5        30.14R
WIS RAPIDS     CLOUDY    40  29  64 NE8       30.13F WCI  34
MARSHFIELD     CLOUDY    40  30  67 NE8       30.11F WCI  34
RICE LAKE      CLOUDY    37  32  81 N6        30.16R WCI  33
$$

...NORTHEAST IOWA...


CITY           SKY/WX    TMP DP  RH WIND       PRES   REMARKS
WATERLOO       LGT RAIN  44  40  85 E16G25    29.94S
DUBUQUE        CLOUDY    44  40  85 E12       29.99F
DECORAH        CLOUDY    43  41  93 E9G15     30.00F
MASON CITY     CLOUDY    43  39  86 E20       29.96F
CHARLES CITY   CLOUDY    43  41  93 E15G23    29.97F
OELWEIN        CLOUDY    43  43 100 E17G23    29.95F
$$

...ELSEWHERE IN IOWA...


CITY           SKY/WX    TMP DP  RH WIND       PRES   REMARKS
DES MOINES     LGT RAIN  46  42  86 E20G28    29.80F FOG
IOWA CITY      CLOUDY    45  43  93 E13G30    29.90F FOG
FORT DODGE     CLOUDY    43  37  81 E18G25    29.88F
MARSHALLTOWN   CLOUDY    44  40  85 E18G28    29.88F
CEDAR RAPIDS   CLOUDY    44  43  96 E22G28    29.89F FOG
$$

...NORTHERN ILLINOIS...


CITY           SKY/WX    TMP DP  RH WIND       PRES   REMARKS
CHICAGO-OHARE  CLOUDY    46  42  86 E9        30.07R FOG
CHICAGO-MIDWAY CLOUDY    49  42  77 E10       30.06S
MOLINE         CLOUDY    46  42  86 E14       29.94F FOG
ROCKFORD       CLOUDY    45  39  79 E12       30.06S
PEORIA         LGT RAIN  48  45  89 E13       29.94S FOG
$$

NOTE: "FAIR" INDICATES FEW OR NO CLOUDS BELOW 12,000 FEET WITH NO
SIGNIFICANT WEATHER AND/OR OBSTRUCTIONS TO VISIBILITY. WIND
SPEEDS ARE IN MILES-PER-HOUR.




USA.gov is the U.S. government's official web portal to all federal, state and local government web resources and services.